Hourly Data Report for May 31, 2003

SHERBROOKE A
QUEBEC

45°26'00.000" N
71°41'00.000" W
241.40 m
7028124
71610
YSC

Download Data

Hourly Data (May 2003)
Hourly Data Report for May 31, 2003
TIME
LST
Temp Definition
°C
Dew Point Definition
°C
Rel Hum Definition
%
Precip. Amount Definition
mm

Wind Dir Definition
10's deg

Wind Spd Definition
km/h
Visibility Definition
km
Stn Press Definition
kPa
Hmdx Definition


Wind Chill Definition


Weather Definition


00:00 11.1 10.6 97   19 4 8.0 97.43      
01:00 11.2 10.7 97   22 6 11.3 97.41      
02:00 11.2 10.6 96   23 7 11.3 97.44      
03:00 11.1 10.6 97     0 6.4 97.45     Drizzle
04:00 11.0 10.5 97   25 7 6.4 97.47      
05:00 11.0 10.4 96   21 4 11.3 97.54      
06:00 11.4 10.5 94   23 7 15.0 97.58      
07:00 12.4 10.9 91   29 6 24.1 97.59     Mostly Cloudy
08:00 12.7 10.1 84     0 24.1 97.59     Mostly Cloudy
09:00 14.4 11.2 81   21 6 24.1 97.58     Mostly Cloudy
10:00 15.9 9.9 68   26 4 24.1 97.59     Mostly Cloudy
11:00 17.0 9.9 63   23 7 24.1 97.57     Mostly Cloudy
12:00 17.8 9.4 58   30 6 24.1 97.54     Mostly Cloudy
13:00 18.9 9.2 53   22 7 24.1 97.52     Mainly Clear
14:00 19.5 10.0 54   2 6 24.1 97.51     Mainly Clear
15:00 19.4 8.6 50   32 4 24.1 97.51     Mainly Clear
16:00 20.3 7.9 45     0 24.1 97.49     Mainly Clear
17:00 19.1 9.5 54   34 7 15.0 97.48      
18:00 18.1 10.6 62   34 4 15.0 97.49      
19:00 16.5 12.2 76   3 4 15.0 97.50      
20:00 15.5 11.9 79     0 15.0 97.56      
21:00 15.3 10.4 73   5 6 15.0 97.58      
22:00 14.9 9.7 71   5 7 15.0 97.56      
23:00 14.6 9.6 72   3 11 15.0 97.56      

Notes on Data Quality.

Legend

  • E = Estimated
  • M = Missing
  • NA = Not Available*
  • [empty] = Indicates an unobserved value
Date modified: